Flag for Kiribati Weather past 2 weeks in Kiritimati, Christmas Island, Kiribati

Now
81 °F

Scattered clouds.


Feels Like: 87 °F
Forecast: 80 / 86 °F
Wind: 7 mph from Southeast

Location: Christmas / Cassidy

Current Time: Jun 4, 2015 at 8:09:07 AM

Latest Report: Jun 4, 2015 at 7:00 AM


Visibility: N/A

Pressure: 29.80 "Hg

Humidity: 89%

Dew point: 77 °F

Location of KiritimatiLocation

Historic Weather in Kiritimati — Graph

°F

Kiritimati temperature yesterday

Maximum temperature yesterday: 82 °F (at 2:00 AM)
Minimum temperature yesterday: 77 °F (at 10:00 AM)
Average temperature yesterday: 80 °F

Past Weeks' High & Low Weather Summary

 TemperatureHumidityPressure
High90 °F (May 27, 2:00 PM)100% (May 21, 10:00 PM)30.01 "Hg (May 21, 10:00 PM)
Low75 °F (May 21, 10:00 PM)59% (May 27, 2:00 PM)29.53 "Hg (Jun 2, 12:00 AM)
Average82 °F86%29.84 "Hg
* Reported May 20 6:00 AM — Jun 4 6:00 AM, Kiritimati, Weather by CustomWeather, © 2015

Note: Actual official high and low records may vary slightly from our data, if they occured in-between our weather recording intervals... More about our weather records

Advertising

Kiritimati weather history for previous 24 hours

 ConditionsComfort  
Time TempWeatherWind HumidityBarometerVisibility
6:00 AM
Thu, Jun 4
79 °FPartly sunny.3 mph94%29.80 "HgN/A
5:00 AM79 °FScattered clouds.5 mph94%29.80 "HgN/A
3:00 AM79 °FPassing clouds.7 mph94%29.80 "HgN/A
2:00 AM81 °FPassing clouds.9 mph84%29.83 "HgN/A
1:00 AM81 °FPassing clouds.9 mph89%29.83 "HgN/A
12:00 AM81 °FPassing clouds.12 mph89%29.83 "HgN/A
10:00 PM
Wed, Jun 3
82 °FScattered showers. Partly cloudy.9 mph84%29.83 "HgN/A
9:00 PM82 °FPartly cloudy.12 mph89%29.83 "HgN/A
8:00 PM82 °FPartly cloudy.12 mph84%29.83 "HgN/A
7:00 PM81 °FScattered showers. Overcast.9 mph94%29.80 "HgN/A
5:00 PM79 °FScattered showers. Overcast.12 mph94%29.77 "HgN/A
4:00 PM79 °FScattered showers. Mostly cloudy.7 mph94%29.77 "HgN/A
3:00 PM77 °FDrizzle. Cloudy.12 mph100%29.77 "HgN/A
2:00 PM79 °FScattered showers. Cloudy.2 mph89%29.83 "HgN/A
1:00 PM77 °FDrizzle. Cloudy.5 mph100%29.86 "HgN/A
12:00 PM77 °FLight rain. Mostly cloudy.7 mph100%29.86 "HgN/A
11:00 AM79 °FDrizzle. Cloudy.7 mph94%29.89 "HgN/A
10:00 AM77 °FWarm.21 mph100%29.89 "HgN/A
9:00 AM82 °FDrizzle. Mostly cloudy.9 mph84%29.86 "HgN/A
8:00 AM82 °FScattered showers. Mostly cloudy.14 mph84%29.86 "HgN/A
Weather by CustomWeather, © 2015

See weather overviewHow to use our weather pages